Simultaneous Nadir Overpasses (SNOs) Predictions

Prediction of SNOs near US between AQUA and NPP Satellite Orbit:

Table of predicted SNOs near US for the next 10.0 days since TLE Epoch: 1/17/2014
Index Date (AQUA) Time (AQUA) AQUA Lat,Lon Date (NPP) Time (NPP) NPP Lat,Lon Distance(km) Time Diff (sec)
1 01/19/2014 06:30:42 46.40, -65.03 01/19/2014 06:33:16 46.77, -67.00 155.98 154
2 01/19/2014 08:08:36 49.92, -88.36 01/19/2014 08:13:43 50.39, -90.82 183.54 307
3 01/19/2014 09:47:29 49.92,-113.07 01/19/2014 09:55:10 50.56,-116.12 227.88 461
4 01/21/2014 19:06:48 49.94, -92.58 01/21/2014 19:04:02 49.60, -94.48 141.49 166
5 01/21/2014 20:45:42 49.99,-117.32 01/21/2014 20:45:31 49.55,-119.83 186.68 11
6 01/24/2014 08:33:58 25.74,-100.55 01/24/2014 08:27:13 25.73,-100.62 7.16 405
7 01/24/2014 10:10:20
